     2.10           OBSERVATION DATA    G (GPS)             RINEX VERSION / TYPE
teqc 2002Apr3 Duncan Agnew 20050511 23:58:28UTC             PGM / RUN BY / DATE
OSX 5.3|G3|cc|OSX 5.3+|G3+                                  COMMENT
BIT 2 OF LLI FLAGS DATA COLLECTED UNDER A/S CONDITION       COMMENT
HPGN-CA 11-04 1990                                          MARKER NAME
7416                                                        MARKER NUMBER
Bob Hagler Caltrans District 11                             OBSERVER / AGENCY
220247416 TRIMBLE 5700 NP 1.24 / SP 1.24                    REC # / TYPE / VERS
12235001 TRM41249.00                                        ANT # / TYPE
 -2294645.0000 -4858067.0000  3425649.0000                  APPROX POSITION XYZ
        1.8900        0.0000        0.0000                  ANTENNA: DELTA H/E/N
     1     1                                                WAVELENGTH FACT L1/2
     7    C1    L1    L2    P1    P2    S1    S2            # / TYPES OF OBSERV
SNR is mapped to RINEX snr flag value [1-9]                 COMMENT
L1: 3 -> 1; 8 -> 5; 40 -> 9                                 COMMENT
L2: 1 -> 1; 5 -> 5; 60 -> 9                                 COMMENT
  2004     6    29    14    18    0.0000000     GPS         TIME OF FIRST OBS
                                                            END OF HEADER
 04  6 29 14 18  0.0000000  0  6G10G17G18G26G29G30
  23409823.3754     150319.77359     72284.84957                  23409821.6764
        43.5004         27.0004
  23303735.6094     107275.20359     49807.37256                  23303733.7424
        42.5004         25.2504
  21753442.1254     -38086.19159    -23412.59857                  21753439.4024
        49.2504         38.2504
  21907056.0164      -8338.70759     -8592.99757                  21907054.2464
        46.0004         33.2504
  22352056.8134      29566.44559     10080.61757                  22352054.5984
        45.5004         32.2504
  22924100.3524     146864.95359     71214.16757                  22924098.3404
        47.0004         31.0004
 04  6 29 14 18 10.0000000  0  6G10G17G18G26G29G30
  23418769.5634     197328.55149    108915.04547                  23418767.1564
        44.5004         29.5004
  23310097.4144     140706.99249     75858.12546                  23310095.3484
        42.0004         24.7504
  21751126.2034     -50256.50849    -32895.96047                  21751123.2344
        49.0004         37.5004
  21906511.3984     -11199.44149    -10822.14947                  21906510.4734
        45.7504         33.0004
  22353733.1564      38373.14849     16942.97947                  22353730.1134
        45.7504         32.2504
  22932672.3284     191910.19949    106314.34947                  22932669.8754
        46.5004         30.5004
 04  6 29 14 18 20.0000000  0 10G 6G10G16G17G18G21G26G29G30G22
  20111388.3674      47810.57859     24947.70558                  20111385.8484
        51.7504         42.0004
  23427691.5314     244215.50049    145450.32147                  23427689.3874
        44.5004         28.5004
  24369609.3834     -21056.96559    -18693.61656                  24369606.1374
        39.2504         21.7504
  23316434.4694     174009.60249    101808.17646                  23316433.3054
        42.5004         25.2504
  21748792.4224     -62522.29749    -42453.72347                  21748789.0904
        48.0004         36.7504
  21411294.3914      -1022.96159     -5085.59557                  21411290.1844
        50.0004         38.0004
  21905952.6644     -14136.02749    -13110.36747                  21905951.0784
        45.2504         33.7504
  22355394.5554      47103.59449     23745.91447                  22355392.0784
        46.2504         31.7504
  22941220.5784     236833.02749    141319.11447                  22941218.3164
        46.7504         30.0004
  24380110.6174     -58624.27359    -44345.45856                  24380105.8714
        41.2504         22.5004
 04  6 29 14 18 30.0000000  0 10G 6G10G16G17G18G21G26G29G30G22
  20113807.5704      60521.85949     34852.59748                  20113804.7384
        51.0004         41.5004
  23436594.3754     291001.46949    181906.88647                  23436591.7814
        43.7504         28.0004
  24368118.5634     -28890.57049    -24797.69546                  24368115.2854
        40.0004         21.0004
  23322751.6024     207204.14849    127674.03647                  23322749.8874
        43.0004         26.2504
  21746444.2274     -74862.50449    -52069.47947                  21746440.8754
        47.5004         37.0004
  21411185.0554      -1597.79749     -5533.52547                  21411180.4494
        50.5004         38.5004
  21905383.6484     -17127.28549    -15441.21047                  21905382.0274
        47.0004         34.2504
  22357044.7424      55778.69149     30505.72047                  22357043.3554
        45.2504         32.5004
  22949749.7194     281654.18849    176244.69247                  22949747.1954
        46.0004         28.5004
  24375998.9694     -80225.50449    -61177.65846                  24375995.1454
        40.2504         22.5004
 04  6 29 14 18 40.0000000  0 10G 6G10G16G17G18G21G26G29G30G22
  20116215.5554      73177.67249     44714.26348                  20116212.6604
        50.7504         41.5004
  23445480.1954     337693.77749    218290.48447                  23445477.7734
        43.7504         28.0004
  24366616.8914     -36782.93749    -30947.62446                  24366613.2234
        38.5004         21.7504
  23329049.5234     240297.85249    153461.29546                  23329047.8204
        41.7504         24.7504
  21744082.9614     -87269.77049    -61737.47347                  21744080.1214
        47.7504         37.2504
  21411058.1484      -2264.41449     -6052.97547                  21411053.8984
        50.5004         38.5004
  21904804.9304     -20165.77349    -17808.87447                  21904803.1884
        45.5004         33.5004
  22358686.7034      64405.99249     37228.30647                  22358685.0784
        45.0004         32.7504
  22958261.1724     326381.05549    211096.78347                  22958258.6254
        47.0004         30.0004
  24371871.2504    -101916.58249    -78079.75246                  24371867.3594
        41.0004         21.7504
 04  6 29 14 18 50.0000000  0 10G 6G10G16G17G18G21G26G29G30G22
  20118614.8444      85786.46949     54539.30748                  20118612.2074
        50.7504         41.7504
  23454349.1334     384300.86349    254607.67047                  23454346.7544
        44.5004         29.7504
  24365104.9774     -44725.35949    -37136.50546                  24365101.9734
        39.7504         21.7504
  23335329.3524     273299.37149    179176.74447                  23335327.1524
        41.7504         26.7504
  21741710.9614     -99735.41449    -71450.97247                  21741707.9024
        48.2504         37.5004
  21410915.4144      -3014.08249     -6637.14447                  21410911.1214
        50.0004         38.2504
  21904219.5784     -23242.89549    -20206.65347                  21904217.4844
        46.5004         33.2504
  22360320.8364      72994.12949     43920.37147                  22360319.2974
        44.7504         32.2504
  22966756.9454     371022.08249    245881.98547                  22966753.8164
        47.0004         29.7504
  24367727.7504    -123688.87949    -95045.17446                  24367723.8364
        40.7504         22.0004
 04  6 29 14 19  0.0000000  0 10G 6G10G16G17G18G21G26G29G30G22
  20121005.9924      98352.25049     64330.81248                  20121003.4494
        50.5004         42.0004
  23463202.7664     430826.45349    290861.37547                  23463200.7194
        43.7504         30.0004
  24363585.3984     -52714.05549    -43361.43746                  24363581.7814
        39.0004         21.7504
  23341592.1804     306212.51649    204823.34847                  23341590.8164
        43.0004         28.5004
  21739328.6254    -112255.59449    -81206.94047                  21739325.4574
        47.2504         37.0004
  21410757.7504      -3842.93049     -7283.00647                  21410753.4574
        50.0004         38.0004
  21903627.1644     -26354.62149    -22631.36247                  21903625.4104
        46.0004         32.0004
  22361948.5084      81546.83649     50584.79647                  22361946.3244
        44.0004         33.0004
  22975235.6334     415580.97749    280603.19447                  22975233.3834
        47.0004         30.2504
  24363570.7814    -145538.66449   -112070.92546                  24363566.3594
        40.5004         22.7504
 04  6 29 14 19 10.0000000  0 10G 6G10G16G17G18G21G26G29G30G22
  20123390.8754     110883.12149     74095.11348                  20123387.7814
        50.7504         42.0004
  23472042.3204     477278.56649    327057.79747                  23472040.4924
        43.5004         29.7504
  24362057.7734     -60740.87149    -49616.10646                  24362054.8954
        38.2504         21.5004
  23347840.5554     339045.32049    230407.31747                  23347838.1564
        41.7504         26.0004
  21736937.0944    -124822.21149    -90999.10947                  21736933.9534
        47.5004         37.0004
  21410586.4774      -4742.84849     -7984.24047                  21410581.9184
        50.7504         38.2504
  21903029.9774     -29492.89849    -25076.76347                  21903027.5044
        45.2504         32.0004
  22363571.0004      90072.30549     57228.01747                  22363568.4494
        45.2504         32.7504
  22983700.5474     460065.62149    315266.50347                  22983698.6994
        45.2504         29.5004
  24359398.8984    -167457.66449   -129150.69446                  24359395.5984
        40.7504         22.5004
 04  6 29 14 19 20.0000000  0 10G 6G10G16G17G18G21G26G29G30G22
  20125770.0164     123387.37949     83838.68248                  20125767.5314
        50.5004         42.5004
  23480869.3914     523665.38749    363203.31747                  23480867.3094
        43.5004         29.2504
  24360525.0944     -68797.41749    -55893.91546                  24360522.1454
        38.2504         22.5004
  23354074.3444     371806.14849    255935.22247                  23354071.8834
        42.0004         27.2504
  21734538.5234    -137426.84449   -100820.89547                  21734535.4064
        48.2504         37.5004
  21410403.4844      -5705.60549     -8734.44947                  21410399.2734
        50.0004         38.5004
  21902429.6484     -32649.21149    -27536.23747                  21902427.2344
        44.7504         31.7504
  22365189.5474      98578.81349     63856.45347                  22365187.5164
        44.0004         31.2504
  22992152.6484     504484.37149    349878.52247                  22992150.6764
        45.0004         27.7504
  24355216.2424    -189437.47749   -146277.82246                  24355213.2734
        40.7504         23.0004
 04  6 29 14 19 30.0000000  0 10G 6G10G16G17G18G21G26G29G30G22
  20128143.8364     135860.69149     93558.12948                  20128141.1994
        50.5004         42.0004
  23489683.3834     569982.40249    399294.51747                  23489680.9534
        44.5004         30.0004
  24358985.4614     -76887.98849    -62198.30346                  24358982.1094
        39.0004         22.0004
  23360294.4614     404490.64549    281403.65647                  23360292.2504
        41.0004         27.2504
  21732132.0234    -150073.82849   -110675.68147                  21732128.7304
        48.0004         37.5004
  21410207.6644      -6735.54749     -9537.00247                  21410203.2974
        50.7504         38.7504
  21901824.9064     -35827.86349    -30013.10147                  21901821.9924
        45.0004         32.5004
  22366803.7734     107062.06649     70466.78647                  22366802.7274
        45.0004         32.2504
  23000592.7504     548832.62149    384435.55947                  23000590.0084
        45.5004         28.5004
  24351021.9694    -211482.44549   -163455.69546                  24351017.9104
        41.2504         22.7504
 04  6 29 14 19 40.0000000  0 10G 6G10G16G17G18G21G26G29G30G22
  20130512.6334     148308.07849    103257.38648                  20130509.7544
        50.2504         42.2504
  23498485.1484     616234.67649    435335.22647                  23498481.9694
        44.7504         30.0004
  24357440.7584     -85007.50849    -68525.16646                  24357437.3444
        38.5004         22.2504
  23366500.2664     437103.82449    306816.49747                  23366498.1414
        41.5004         27.2504
  21729718.4304    -162758.12149   -120559.54747                  21729715.1214
        47.7504         37.0004
  21409999.5784      -7827.68749    -10388.02847                  21409995.8984
        50.7504         38.0004
  21901217.0234     -39023.71149    -32503.37447                  21901213.7974
        43.7504         33.0004
  22368415.0864     115527.19549     77062.97247                  22368413.2934
        44.7504         32.5004
  23009019.7504     593115.30549    418941.53647                  23009017.1214
        46.2504         29.5004
  24346815.1334    -233587.49649   -180680.43646                  24346811.9344
        42.0004         22.0004
 04  6 29 14 19 50.0000000  0 10G 6G10G16G17G18G21G26G29G30G22
  20132876.5004     160732.30149    112938.58748                  20132873.9494
        50.7504         42.0004
  23507274.4454     662424.80549    471327.53347                  23507271.9694
        44.7504         30.5004
  24355890.7114     -93153.21549    -74872.46246                  24355887.2424
        38.2504         22.0004
  23372693.6804     469648.37949    332175.88547                  23372692.3404
        42.0004         27.0004
  21727297.5944    -175476.99249   -130470.34847                  21727294.4304
        48.2504         37.2504
  21409780.2974      -8979.37949    -11285.45447                  21409776.0824
        50.5004         38.5004
  21900605.9144     -42234.04349    -35004.94247                  21900602.8634
        44.2504         32.5004
  22370022.5784     123976.92649     83647.18647                  22370021.4494
        45.2504         33.0004
  23017433.9774     637335.06349    453398.51147                  23017432.3244
        45.5004         29.7504
  24342598.2114    -255749.87549   -197949.83646                  24342593.6844
        41.0004         21.2504
 04  6 29 14 20  0.0000000  0 10G 6G10G16G17G18G21G26G29G30G22
  20135237.4144     173137.58649    122605.04648                  20135234.8134
        51.0004         41.5004
  23516053.0704     708556.73449    507274.45147                  23516050.7704
        44.2504         29.5004
  24354335.6954    -101320.91449    -81236.87046                  24354332.5124
        37.7504         20.5004
  23378874.3284     502128.38749    357484.94347                  23378873.2544
        41.5004         27.0004
  21724871.9064    -188226.25449   -140404.85047                  21724868.3874
        49.0004         37.0004
  21409550.7504     -10186.55149    -12226.11347                  21409546.6724
        49.0004         37.7504
  21899992.8754     -45454.61749    -37514.47747                  21899990.2774
        44.2504         32.5004
  22371628.5784     132415.31349     90222.56747                  22371626.9414
        41.5004         32.7504
  23025837.1094     681495.76649    487809.40647                  23025835.9654
        45.0004         29.2504
  24338370.1804    -277965.43449   -215260.62746                  24338366.3834
        40.7504         20.0004
 04  6 29 14 20 10.0000000  0 10G 6G10G16G17G18G21G26G29G30G22
  20137594.4064     185524.08249    132256.86448                  20137591.6884
        51.0004         41.5004
  23524820.3914     754630.54349    543176.08647                  23524818.4264
        43.7504         30.2504
  24352777.6484    -109510.43049    -87618.32446                  24352774.1604
        38.0004         20.5004
  23385042.6884     534543.96949    382743.83347                  23385041.7704
        42.7504         28.5004
  21722440.0474    -201005.67249   -150362.82547                  21722436.5204
        48.0004         36.7504
  21409310.6254     -11448.93449    -13209.79447                  21409306.5124
        50.0004         38.0004
  21899378.4064     -48685.18049    -40031.78647                  21899375.5514
        44.2504         32.5004
  22373232.0314     140842.54349     96789.23947                  22373230.6334
        43.0004         32.5004
  23034229.2974     725597.56349    522174.40147                  23034228.1524
        45.0004         29.2504
  24334132.1254    -300233.84849   -232612.70346                  24334128.3524
        40.2504         20.2504
 04  6 29 14 20 20.0000000  0 10G 6G10G16G17G18G21G26G29G30G22
  20139948.9774     197896.35549    141897.58748                  20139946.3484
        50.5004         41.5004
  23533578.0704     800650.80149    579036.02047                  23533575.7074
        44.7504         29.5004
  24351216.7974    -117717.10549    -94013.16246                  24351212.2854
        39.2504         21.7504
  23391199.0234     566899.79749    407956.13947                  23391198.0164
        41.0004         28.0004
  21720003.3984    -213810.65649   -160340.73447                  21719999.7664
        48.5004         37.5004
  21409060.5634     -12761.98049    -14232.94647                  21409056.7774
        49.5004         37.7504
  21898762.3914     -51921.01249    -42553.23147                  21898759.8364
        45.0004         32.5004
  22374834.3204     149263.40249    103350.94247                  22374833.1174
        42.7504         32.2504
  23042612.2274     769644.92249    556497.01747                  23042609.9574
        45.7504         29.0004
  24329886.0634    -322550.54749   -250002.29946                  24329881.4534
        41.2504         22.2504
 04  6 29 14 20 30.0000000  0 10G 6G10G16G17G18G21G26G29G30G22
  20142301.6024     210259.45349    151531.17248                  20142298.6524
        51.0004         41.7504
  23542325.7974     846622.33649    614857.98847                  23542323.9224
        43.5004         28.0004
  24349652.7034    -125935.86349   -100417.44746                  24349647.6804
        38.5004         22.0004
  23397345.8674     599200.80949    433125.76747                  23397344.8914
        41.2504         27.5004
  21717562.5474    -226636.24249   -170334.69047                  21717559.1214
        48.2504         37.2504
  21408802.1414     -14120.71149    -15291.70547                  21408798.2734
        50.0004         38.0004
  21898146.8204     -55157.18449    -45074.91447                  21898144.2424
        44.5004         32.7504
  22376437.0944     157682.72349    109911.43547                  22376435.2974
        45.7504         32.5004
  23050984.8134     813642.66849    590780.98247                  23050982.1214
        46.0004         28.7504
  24325631.3524    -344910.57049   -267425.68146                  24325627.0314
        42.5004         23.5004
 04  6 29 14 20 40.0000000  0 10G 6G10G16G17G18G21G26G29G30G22
  20144651.4064     222609.50849    161154.57248                  20144649.0704
        50.7504         41.7504
  23551063.6094     892541.14549    650638.86047                  23551061.5554
        42.5004         27.0004
  24348085.2274    -134170.54749   -106834.03546                  24348080.7074
        39.2504         20.7504
  23403481.7664     631443.12549    458249.64447                  23403480.0314
        41.0004         26.5004
  21715117.2894    -239486.17249   -180347.61347                  21715113.8524
        48.0004         37.0004
  21408534.0704     -15528.96549    -16389.05047                  21408530.6374
        49.5004         38.2504
  21897529.8054     -58397.25449    -47599.64447                  21897527.7974
        45.0004         32.7504
  22378037.8594     166096.75849    116467.83647                  22378036.2974
        42.7504         33.2504
  23059345.8054     857586.85549    625023.21547                  23059344.5234
        45.0004         29.0004
  24321367.7274    -367317.61749   -284885.72146                  24321363.3484
        42.5004         24.7504
 04  6 29 14 20 50.0000000  0 10G 6G10G16G17G18G21G26G29G30G22
  20147000.2344     234950.18449    170770.67948                  20146997.4064
        51.0004         41.7504
  23559792.5394     938410.75849    686381.38447                  23559790.5664
        42.2504         27.0004
  24346515.7894    -142417.39149   -113260.15346                  24346511.3404
        40.5004         20.2504
  23409606.2974     663630.36349    483330.59547                  23409605.6914
        40.7504         27.0004
  21712667.7504    -252356.82449   -190376.69247                  21712664.1414
        48.5004         37.2504
  21408257.5164     -16983.23049    -17522.24147                  21408253.4264
        50.5004         38.5004
  21896913.6484     -61637.62949    -50124.61847                  21896911.1884
        45.5004         33.5004
  22379639.2584     174509.09049    123022.90647                  22379636.9694
        45.5004         33.7504
  23067698.7274     901481.00449    659226.40647                  23067697.4384
        44.5004         29.2504
  24317095.2424    -389767.96549   -302379.51046                  24317091.6254
        42.0004         25.2504
 04  6 29 14 21  0.0000000  0 10G 6G10G16G17G18G21G26G29G30G22
  20149346.7814     247283.93049    180381.38048                  20149344.2304
        50.7504         42.0004
  23568512.4614     984233.46149    722087.34547                  23568510.2974
        43.2504         27.7504
  24344944.6174    -150674.03549   -119693.90946                  24344940.0354
        40.0004         21.2504
  23415721.6174     695764.97749    508370.47347                  23415721.0984
        40.5004         27.5004
  21710215.3984    -265245.75049   -200420.00847                  21710211.9184
        47.2504         36.5004
  21407972.3914     -18481.00049    -18689.34147                  21407968.4654
        50.2504         38.7504
  21896297.2664     -64875.80549    -52647.87147                  21896294.7464
        44.2504         33.0004
  22381240.0004     182922.18449    129578.54747                  22381238.7424
        45.7504         33.0004
  23076042.5474     945327.36749    693392.38347                  23076041.2074
        44.7504         29.5004
  24312815.2274    -412259.25449   -319905.16846                  24312811.8484
        41.2504         23.2504
 04  6 29 14 21 10.0000000  0 10G 6G10G16G17G18G21G26G29G30G22
  20151692.3984     259610.28549    189986.32948                  20151689.9064
        50.7504         42.2504
  23577222.5554    1030008.61749    757756.28147                  23577221.4494
        42.7504         26.0004
  24343371.3204    -158940.93749   -126135.67746                  24343366.8594
        40.5004         20.5004
  23421826.9384     727846.35549    533368.98547                  23421825.6054
        40.2504         27.0004
  21707759.0084    -278153.43449   -210477.92947                  21707755.6954
        48.0004         37.0004
  21407678.8204     -20022.91849    -19890.84547                  21407674.7934
        50.5004         38.2504
  21895681.8284     -68112.23049    -55169.76247                  21895679.0004
        45.7504         32.7504
  22382841.0084     191335.54349    136134.40447                  22382839.8714
        46.2504         33.2504
  23084377.3674     989125.27349    727520.61047                  23084376.2114
        45.5004         30.0004
  24308527.4064    -434791.89849   -337463.05546                  24308524.2274
        39.5004         22.2504
 04  6 29 14 21 20.0000000  0 10G 6G10G16G17G18G21G26G29G30G22
  20154037.8984     271934.39549    199589.52648                  20154035.1054
        50.7504         41.7504
  23585925.6884    1075741.37149    793392.14346                  23585923.2624
        42.0004         25.5004
  24341796.7894    -167212.84849   -132581.26546                  24341792.2774
        40.0004         20.7504
  23427922.5944     759879.69149    558329.98347                  23427921.2344
        39.7504         26.2504
  21705300.1174    -291074.65649   -220546.40447                  21705297.0044
        48.2504         36.5004
  21407378.0634     -21603.77049    -21122.67347                  21407374.2194
        50.5004         38.0004
  21895067.4064     -71341.67649    -57686.22247                  21895064.5984
        46.5004         33.5004
  22384442.7344     199754.43049    142694.58147                  22384441.6884
        46.2504         32.5004
  23092703.5164    1032879.75849    761614.99847                  23092702.1024
        45.5004         29.5004
  24304233.3364    -457360.64149   -355049.11746                  24304229.2464
        40.5004         23.5004
 04  6 29 14 21 30.0000000  0 10G 6G10G16G17G18G21G26G29G30G22
  20156382.3914     284255.87949    209190.68048                  20156379.7504
        51.0004         42.2504
  23594620.1954    1121431.23849    828994.63346                  23594617.3794
        42.5004         25.0004
  24340221.9384    -175490.06249   -139031.06846                  24340217.1724
        38.7504         21.0004
  23434008.7814     791864.59449    583253.27047                  23434007.3754
        41.5004         25.7504
  21702838.8674    -304009.81249   -230625.75747                  21702835.3094
        47.7504         37.2504
  21407069.6564     -23223.89849    -22385.11747                  21407066.0044
        51.0004         38.0004
  21894454.0944     -74564.44549    -60197.48247                  21894451.5084
        46.0004         33.7504
  22386045.4694     208178.34849    149258.67647                  22386044.1214
        45.7504         33.0004
  23101021.5634    1076590.36349    795675.21147                  23101019.7074
        45.7504         28.2504
  24299931.7114    -479965.83649   -372663.53946                  24299927.4454
        41.2504         23.2504
 04  6 29 14 21 40.0000000  0 10G 6G10G16G17G18G21G26G29G30G22
  20158726.8444     296573.98049    218789.18548                  20158723.9964
        51.2504         42.0004
  23603306.4304    1167077.27749    864562.94947                  23603303.8594
        43.5004         26.7504
  24338646.5474    -183773.50849   -145485.80546                  24338641.4884
        40.2504         19.7504
  23440085.8134     823800.21149    608138.15846                  23440084.3794
        39.7504         25.2504
  21700374.1564    -316959.80549   -240716.66247                  21700370.6374
        48.7504         37.0004
  21406753.8914     -24884.18049    -23678.84847                  21406749.6994
        50.7504         38.0004
  21893841.5784     -77781.19149    -62704.03447                  21893839.6994
        47.0004         33.5004
  22387650.0634     216606.71949    155826.23047                  22387647.5164
        46.0004         33.0004
  23109330.1094    1120256.16849    829700.49847                  23109328.8014
        45.2504         29.0004
  24295622.6414    -502608.27049   -390307.00346                  24295618.8284
        40.7504         25.5004
 04  6 29 14 21 50.0000000  0 10G 6G10G16G17G18G21G26G29G30G22
  20161070.2274     308889.16849    228385.43248                  20161067.1094
        50.5004         41.0004
  23611983.9144    1212679.77049    900097.34647                  23611982.0824
        42.7504         27.0004
  24337068.6724    -192062.56649   -151944.79446                  24337063.8674
        40.0004         21.2504
  23446153.0394     855687.03149    632984.98546                  23446151.6414
        38.7504         24.0004
  21697907.5634    -329924.03149   -250818.63847                  21697903.9734
        49.0004         37.5004
  21406430.4304     -26584.25449    -25003.57847                  21406426.3794
        50.0004         37.5004
  21893230.7344     -80991.56649    -65205.60747                  21893228.6604
        47.0004         34.2504
  22389254.4694     225039.81649    162397.45947                  22389252.5204
        45.7504         33.0004
  23117631.9454    1163877.45349    863691.08647                  23117630.4064
        45.2504         30.2504
  24291307.1484    -525287.43049   -407979.12647                  24291302.8284
        42.0004         26.5004
 04  6 29 14 22  0.0000000  0 10G 6G10G16G17G18G21G26G29G30G22
  20163413.8914     321206.12149    237983.05948                  20163411.1844
        51.2504         41.5004
  23620654.8984    1258243.41049    935601.44447                  23620652.5044
        42.5004         27.2504
  24335491.7974    -200352.48449   -158404.44646                  24335486.4694
        40.0004         21.2504
  23452213.5634     887529.59849    657797.32346                  23452210.9494
        39.0004         22.7504
  21695438.5164    -342897.72749   -260928.00547                  21695435.2114
        49.5004         37.7504
  21406100.1644     -28319.39149    -26355.63847                  21406096.2854
        50.2504         37.5004
  21892622.5234     -84190.63749    -67698.40747                  21892619.8984
        47.5004         33.5004
  22390861.1884     233482.40249    168976.10647                  22390859.2504
        46.2504         33.0004
  23125924.9384    1207458.71549    897650.51447                  23125923.7344
        46.0004         30.0004
  24286985.4454    -547998.60549   -425676.17247                  24286981.0044
        41.5004         26.2504
 04  6 29 14 22 10.0000000  0 10G 6G10G16G17G18G21G26G29G30G22
  20165758.0394     333524.47749    247581.77548                  20165755.4574
        51.7504         41.7504
  23629317.4144    1303767.65249    971074.85046                  23629315.3284
        42.7504         25.5004
  24333913.3834    -208643.67249   -164865.11246                  24333908.3364
        39.5004         21.0004
  23458264.4614     919327.82049    682575.17246                  23458261.6994
        39.0004         22.0004
  21692967.8524    -355881.24249   -271045.03647                  21692964.5234
        50.0004         37.0004
  21405763.2974     -30089.96549    -27735.29647                  21405758.9304
        50.5004         37.5004
  21892015.1564     -87378.69549    -70182.63247                  21892012.6684
        47.0004         33.5004
  22392468.9614     241934.05949    175561.80447                  22392467.9924
        45.5004         32.5004
  23134210.6254    1250999.59049    931578.43547                  23134209.3834
        45.7504         29.5004
  24282656.9384    -570742.11349   -443398.35947                  24282653.6214
        40.7504         26.2504
 04  6 29 14 22 20.0000000  0 10G 6G10G16G17G18G21G26G29G30G22
  20168102.9144     345847.04349    257183.77548                  20168100.3754
        50.7504         41.5004
  23637974.6334    1349255.03549   1006519.53946                  23637970.8054
        43.2504         24.0004
  24332335.9064    -216933.34049   -171324.60446                  24332331.2624
        40.5004         21.2504
  23464307.0394     951084.10249    707320.31946                  23464304.8284
        40.5004         22.7504
  21690495.5004    -368871.96549   -281167.66247                  21690492.3554
        49.2504         37.2504
  21405420.0004     -31893.25449    -29140.46747                  21405416.0514
        49.0004         37.7504
  21891411.2584     -90553.10549    -72656.17447                  21891408.6604
        46.2504         33.5004
  22394079.9844     250397.62549    182156.78447                  22394078.6954
        42.5004         33.0004
  23142488.6334    1294502.55549    965476.85147                  23142487.3364
        46.0004         29.0004
  24278323.3674    -593515.17249   -461143.55947                  24278320.6914
        41.7504         26.7504
 04  6 29 14 22 30.0000000  0 10G 6G10G16G17G18G21G26G29G30G22
  20170449.0164     358175.04749    266790.00248                  20170446.2854
        51.7504         42.0004
  23646623.1724    1394706.89549   1041936.57846                  23646619.9024
        43.2504         24.5004
  24330758.7114    -225220.03949   -177781.77746                  24330754.4804
        41.5004         21.2504
  23470342.4924     982799.85549    732033.92046                  23470340.4964
        40.0004         22.7504
  21688023.1564    -381868.38749   -291294.72547                  21688019.2544
        50.0004         37.5004
  21405070.7424     -33727.92649    -30570.08147                  21405066.7234
        50.0004         37.7504
  21890810.0784     -93712.28949    -75117.88547                  21890807.3324
        46.0004         32.5004
  22395692.7114     258874.50449    188762.15047                  22395690.9064
        43.7504         32.5004
  23150760.2504    1337968.87549    999346.70647                  23150757.6294
        45.5004         28.0004
  24273984.4224    -616316.40649   -478910.77347                  24273981.5824
        42.0004         25.7504
 04  6 29 14 22 40.0000000  0 10G 6G10G16G17G18G21G26G29G30G22
  20172795.7664     370507.96949    276400.07748                  20172793.0664
        51.7504         41.7504
  23655265.8834    1440122.46949   1077325.34147                  23655261.6094
        43.2504         25.7504
  24329182.4614    -233504.34849   -184237.06546                  24329178.0084
        41.2504         21.5004
  23476369.7344    1014474.43049    756715.36946                  23476368.6844
        40.0004         23.0004
  21685548.2114    -394871.08249   -301426.70647                  21685544.5864
        49.2504         37.5004
  21404715.8674     -35594.71149    -32024.72547                  21404711.5084
        50.0004         38.0004
  21890211.4144     -96856.82049    -77568.18047                  21890209.4654
        46.0004         32.7504
  22397308.4454     267363.90249    195377.25647                  22397306.4024
        44.2504         33.0004
  23159024.0314    1381397.89549   1033187.48447                  23159022.0314
        45.2504         29.0004
  24269640.5704    -639146.40249   -496700.36746                  24269637.2854
        41.2504         25.5004
 04  6 29 14 22 50.0000000  0 10G 6G10G16G17G18G21G26G29G30G22
  20175143.6334     382845.80549    286013.95848                  20175141.0204
        52.2504         41.5004
  23663900.6884    1485501.60949   1112685.69847                  23663897.7624
        43.5004         25.7504
  24327606.6564    -241786.34049   -190690.57646                  24327602.1564
        41.0004         20.5004
  23482389.5394    1046107.86749    781364.73846                  23482388.5474
        39.2504         22.5004
  21683072.8914    -407880.10249   -311563.59847                  21683069.3634
        49.7504         37.2504
  21404354.1564     -37493.64849    -33504.41647                  21404350.2544
        49.2504         38.0004
  21889616.5004     -99986.73049    -80007.05547                  21889613.8404
        47.0004         33.2504
  22398926.5164     275865.95349    202002.23647                  22398923.8054
        43.5004         32.7504
  23167281.6724    1424789.32449   1066998.99347                  23167280.0084
        46.2504         29.2504
  24265290.1804    -662005.04349   -514512.34747                  24265287.6454
        43.0004         26.0004
 04  6 29 14 23  0.0000000  0 10G 6G10G16G17G18G21G26G29G30G22
  20177493.1484     395192.56649    295634.81348                  20177490.9224
        50.7504         41.7504
  23672530.2344    1530848.13349   1148020.64046                  23672527.3444
        43.7504         25.0004
  24326031.7114    -250062.01249   -197139.13846                  24326027.2114
        39.7504         20.7504
  23488402.3754    1077703.94549    805985.06246                  23488400.7304
        40.2504         21.5004
  21680596.6804    -420891.52049   -321702.35247                  21680593.3404
        50.0004         37.5004
  21403987.7034     -39420.82049    -35006.11347                  21403983.3364
        50.0004         38.5004
  21889024.2664    -103097.91449    -82431.36347                  21889021.7974
        47.5004         33.2504
  22400547.3984     284384.60949    208640.13447                  22400545.0744
        43.7504         32.2504
  23175531.9384    1468146.98849   1100784.16247                  23175530.9844
        45.7504         30.5004
  24260935.5084    -684888.41449   -532343.48747                  24260932.1564
        43.0004         26.5004
 04  6 29 14 23 10.0000000  0 10G 6G10G16G17G18G21G26G29G30G22
  20179844.2274     407547.70349    305262.18248                  20179841.6334
        52.0004         41.7504
  23681152.6174    1576161.54749   1183329.77146                  23681149.7234
        44.5004         25.2504
  24324457.9454    -258331.65249   -203583.04846                  24324453.3834
        40.5004         21.2504
  23494407.5864    1109262.44149    830576.09746                  23494405.5984
        41.2504         22.0004
  21678120.6564    -433905.69949   -331843.27447                  21678116.8094
        49.7504         38.0004
  21403615.4064     -41376.60949    -36530.10747                  21403610.8324
        50.5004         38.0004
  21888435.3914    -106190.73849    -84841.33647                  21888432.8324
        46.2504         33.0004
  22402171.1724     292919.36749    215290.59347                  22402169.2934
        44.2504         33.5004
  23183776.0474    1511470.40649   1134542.67747                  23183775.1134
        45.7504         29.0004
  24256576.6804    -707796.83249   -550194.22247                  24256573.2624
        41.7504         29.0004
 04  6 29 14 23 20.0000000  0 10G 6G10G16G17G18G21G26G29G30G22
  20182197.2424     419912.76249    314897.28948                  20182194.7304
        51.0004         42.0004
  23689769.4694    1621443.12949   1218614.14747                  23689766.3954
        44.7504         25.7504
  24322885.5634    -266593.89849   -210021.16546                  24322881.1334
        39.0004         20.7504
  23500405.6804    1140784.57849    855138.73046                  23500403.4964
        41.2504         22.2504
  21675643.6174    -446921.22749   -341985.24147                  21675640.1764
        49.5004         38.2504
  21403237.9304     -43359.72749    -38075.39747                  21403233.8914
        50.5004         38.0004
  21887850.1484    -109263.77749    -87235.93247                  21887847.6884
        46.7504         32.2504
  22403798.3834     301471.73849    221954.78247                  22403797.1174
        43.5004         32.5004
  23192014.2664    1554760.84049   1168275.42947                  23192012.9144
        45.5004         29.5004
  24252212.3594    -730728.91449   -568063.35747                  24252209.3094
        41.0004         27.7504
 04  6 29 14 23 30.0000000  0 10G 6G10G16G17G18G21G26G29G30G22
  20184552.2344     432288.80949    324540.95248                  20184549.6844
        50.7504         42.0004
  23698380.9694    1666693.91449   1253874.48347                  23698377.0474
        45.2504         26.5004
  24321315.4844    -274847.59449   -216452.67746                  24321310.7384
        39.0004         20.2504
  23506397.8754    1172271.59449    879674.08446                  23506395.8674
        41.5004         22.7504
  21673167.1644    -459936.85549   -352127.29047                  21673163.3164
        50.5004         38.0004
  21402855.8284     -45369.08649    -39641.13047                  21402851.6094
        51.0004         38.2504
  21887269.8204    -112315.79349    -89614.13547                  21887267.1764
        47.0004         33.0004
  22405429.3054     310042.84049    228633.56747                  22405428.4384
        43.5004         32.2504
  23200246.5554    1598019.28549   1201983.31747                  23200244.5704
        46.2504         29.5004
  24247844.2504    -753683.49649   -585950.02047                  24247841.3594
        41.7504         27.7504
 04  6 29 14 23 40.0000000  0 10G 6G10G16G17G18G21G26G29G30G22
  20186910.2114     444678.90649    334195.56848                  20186907.7704
        50.7504         42.0004
  23706986.3674    1711916.69149   1289113.00647                  23706983.2274
        45.0004         27.7504
  24319746.4304    -283089.68049   -222875.03846                  24319742.1134
        38.5004         20.2504
  23512383.5164    1203726.34849    904184.27846                  23512381.2814
        42.7504         23.0004
  21670690.7034    -472949.68049   -362267.15447                  21670687.0744
        50.0004         37.7504
  21402469.1094     -47401.63749    -41224.94847                  21402465.0514
        51.0004         38.7504
  21886693.7504    -115343.80549    -91973.60747                  21886691.1134
        47.0004         33.5004
  22407064.7194     318635.59049    235329.23547                  22407063.5824
        43.2504         32.2504
  23208472.7814    1641248.46549   1235668.37547                  23208470.3014
        46.0004         30.5004
  24243472.7894    -776657.56649   -603851.88247                  24243469.3094
        42.2504         25.7504
 04  6 29 14 23 50.0000000  0 10G 6G10G16G17G18G21G26G29G30G22
  20189270.7504     457083.52749    343861.49948                  20189267.9144
        51.2504         41.7504
  23715586.3284    1757111.94149   1324330.03547                  23715584.3834
        45.0004         28.0004
  24318180.5314    -291319.66049   -229288.04446                  24318176.2664
        38.7504         20.5004
  23518363.5084    1235149.30149    928669.67846                  23518361.2074
        42.5004         22.0004
  21668215.0864    -485959.18049   -372404.42347                  21668211.5634
        50.5004         38.0004
  21402078.0164     -49456.75849    -42826.35147                  21402073.8164
        50.2504         38.0004
  21886122.0234    -118347.16849    -94313.89147                  21886119.4414
        47.2504         33.5004
  22408704.1024     327250.52349    242042.14547                  22408702.5004
        44.0004         31.5004
  23216693.4694    1684448.86349   1269331.05247                  23216691.4734
        46.5004         31.5004
  24239097.1564    -799650.55949   -621768.49146                  24239093.6334
        41.0004         24.5004
 04  6 29 14 24  0.0000000  0 10G 6G10G16G17G18G21G26G29G30G22
  20191634.7274     469507.19149    353542.27048                  20191632.2894
        51.0004         42.0004
  23724182.7034    1802284.11749   1359529.09847                  23724180.8834
        44.5004         27.5004
  24316617.8754    -299532.91049   -235687.95346                  24316613.2814
        38.5004         20.2504
  23524337.7734    1266545.01249    953133.84846                  23524334.7274
        42.5004         22.5004
  21665740.8594    -498960.74649   -382535.50447                  21665737.7774
        49.5004         38.0004
  21401683.2734     -51530.03149    -44441.88847                  21401679.6564
        51.0004         38.2504
  21885556.2034    -121321.20349    -96631.33647                  21885553.9344
        47.5004         34.2504
  22410348.8524     335892.27749    248775.96647                  22410346.9534
        43.2504         31.5004
  23224909.0314    1727624.94149   1302974.72947                  23224908.1094
        45.5004         30.2504
  24234719.2974    -822657.91849   -639696.31646                  24234714.5354
        39.2504         22.5004
 04  6 29 14 24 10.0000000  0 10G 6G10G16G17G18G21G26G29G30G22
  20194002.1884     481947.86749    363236.29848                  20193999.4734
        52.0004         42.0004
  23732774.1804    1847430.99649   1394708.49247                  23732772.0704
        44.7504         28.0004
  24315057.6174    -307731.44149   -242076.43946                  24315053.5204
        38.0004         19.7504
  23530306.9384    1297911.52049    977575.27846                  23530303.3134
        42.2504         22.5004
  21663267.8284    -511956.49249   -392662.06547                  21663264.5234
        49.7504         38.0004
  21401284.8364     -53623.66049    -46073.29747                  21401280.6644
        51.0004         38.0004
  21884995.2114    -124268.05149    -98927.57847                  21884993.0864
        47.7504         34.0004
  22411997.7894     344558.80549    255529.09647                  22411995.8324
        44.5004         30.2504
  23233120.1414    1770774.43049   1336597.68847                  23233119.4924
        45.5004         30.5004
  24230337.4304    -845681.58249   -657636.92046                  24230332.8164
        40.0004         22.0004
 04  6 29 14 24 20.0000000  0 11G 6G10G16G17G18G21G26G29G30G22G15
  20196372.7504     494405.87949    372943.83248                  20196370.2774
        51.5004         41.7504
  23741360.1414    1892552.85949   1429868.36447                  23741358.2304
        44.5004         27.7504
  24313500.1954    -315914.89149   -248453.17646                  24313496.6844
        38.0004         20.0004
  23536269.9534    1329248.87149   1001993.97346                  23536266.6804
        43.0004         22.5004
  21660796.1564    -524945.97749   -402783.73147                  21660792.8714
        50.2504         38.0004
  21400882.6254     -55737.25049    -47720.24847                  21400878.5474
        50.5004         38.2504
  21884440.0084    -127187.25449   -101202.28547                  21884437.8984
        46.0004         33.5004
  22413651.7814     353250.33649    262301.70647                  22413649.9654
        44.7504         31.7504
  23241326.5084    1813897.55949   1370200.07447                  23241325.3554
        45.2504         30.2504
  24225953.7344    -868721.21549   -675589.86447                  24225949.4384
        41.2504         27.0004
  24671052.2034     -38926.37159    -30865.78956                  24671046.7814
        39.0004         18.2504
 04  6 29 14 24 30.0000000  0 11G 6G10G16G17G18G21G26G29G30G22G15
  20198747.0234     506881.93449    382665.42548                  20198744.6374
        51.5004         42.0004
  23749941.4384    1937650.30549   1465009.21646                  23749939.7384
        43.2504         25.0004
  24311945.4614    -324082.55149   -254817.64946                  24311942.6094
        37.5004         19.0004
  23542228.1334    1360557.96549   1026390.64146                  23542225.1024
        43.0004         22.0004
  21658325.3204    -537928.50449   -412899.98347                  21658321.9264
        49.7504         38.2504
  21400477.1334     -57870.09849    -49382.22147                  21400472.9414
        50.7504         38.2504
  21883889.4694    -130078.02049   -103454.82347                  21883887.8014
        46.5004         33.7504
  22415310.4694     361967.58249    269094.38347                  22415308.8484
        45.2504         30.7504
  23249527.7894    1856994.83249   1403782.36347                  23249525.9534
        46.0004         29.7504
  24221567.1094    -891776.00449   -693554.63747                  24221562.6914
        42.0004         28.5004
  24668338.6724     -53190.39549    -41980.63046                  24668334.2934
        40.0004         18.2504
 04  6 29 14 24 40.0000000  0 11G 6G10G16G17G18G21G26G29G30G22G15
  20201124.7274     519376.84849    392401.71548                  20201122.2854
        51.0004         41.2504
  23758518.6414    1982723.91449   1500131.48547                  23758517.1054
        42.2504         26.0004
  24310393.9694    -332233.49249   -261169.00146                  24310391.6054
        36.0004         21.5004
  23548180.4774    1391839.53949   1050765.91046                  23548176.7624
        42.5004         22.5004
  21655856.4144    -550903.39149   -423010.28847                  21655853.1564
        49.0004         38.0004
  21400067.5234     -60021.54749    -51058.68547                  21400063.1334
        50.2504         38.2504
  21883344.9844    -132939.53149   -105684.57847                  21883343.3484
        43.2504         33.5004
  22416974.3364     370711.46149    275907.78747                  22416973.0704
        45.0004         32.0004
  23257724.2194    1900067.02049   1437345.12147                  23257721.3524
        45.2504         28.5004
  24217176.7974    -914845.24249   -711530.63947                  24217173.0864
        43.7504         30.2504
  24665617.6334     -67484.43749    -53118.91346                  24665615.2464
        40.7504         18.2504
